View from above orbital plane
|
View from above satellite
|
Ground track
|
The orbit data is extracted from the following two-line orbital elements,
1 14372U 83099A 22140.56558370 .00007565 00000-0 33809-3 0 9993
2 14372 82.5154 3.1339 0012882 309.2826 50.7266 15.21100471110374
Epoch (UTC): | 20 May 2022 13:34:26 |
Eccentricity: | 0.0012882 |
inclination: | 82.5154° |
perigee height: | 493 km |
apogee height: | 511 km |
right ascension of ascending node: | 3.1339° |
argument of perigee: | 309.2826° |
revolutions per day: | 15.21100471 |
mean anomaly at epoch: | 50.7266° |
orbit number at epoch: | 11037 |
The dashed part of the orbit path shows where the satellite is in the earth's shadow,
|
|